Time,TemperatureF,DewpointF,PressureIn,WindDirection,WindDirectionDegrees,WindSpeedMPH,WindSpeedGustMPH,Humidity,HourlyPrecipIn,Conditions,Clouds,dailyrainin,SolarRadiationWatts/m^2,SoftwareType,DateUTC
2013-01-30 00:11:00,22.0,20.0,-100.00,NE,38,1.0,2.0,90,0.00,,,0.11,0.000000,,2013-01-30 07:11:00,
2013-01-30 00:42:00,23.0,21.0,-100.00,NE,50,1.0,4.0,90,0.00,,,0.11,0.000000,,2013-01-30 07:42:00,
2013-01-30 00:52:00,23.0,21.0,-100.00,NE,50,1.0,4.0,90,0.00,,,0.11,0.000000,,2013-01-30 07:52:00,
2013-01-30 01:01:00,23.0,21.0,-100.00,NE,50,1.0,4.0,90,0.00,,,0.11,0.000000,,2013-01-30 08:01:00,
2013-01-30 01:11:00,23.0,21.0,-100.00,NE,50,1.0,4.0,90,0.00,,,0.11,0.000000,,2013-01-30 08:11:00,
2013-01-30 01:42:00,23.0,21.0,-100.00,NW,321,3.0,4.0,90,0.00,,,0.11,0.000000,,2013-01-30 08:42:00,
2013-01-30 01:52:00,23.0,21.0,-100.00,NW,321,3.0,4.0,90,0.00,,,0.11,0.000000,,2013-01-30 08:52:00,
2013-01-30 02:01:00,23.0,21.0,-100.00,NW,321,3.0,4.0,90,0.00,,,0.11,0.000000,,2013-01-30 09:01:00,
2013-01-30 02:11:00,23.0,21.0,-100.00,NW,321,3.0,4.0,90,0.00,,,0.11,0.000000,,2013-01-30 09:11:00,
2013-01-30 03:42:00,24.0,22.0,-100.00,North,350,2.0,4.0,91,-99.99,,,0.11,0.000000,,2013-01-30 10:42:00,
2013-01-30 03:52:00,24.0,22.0,-100.00,North,350,2.0,4.0,91,-99.99,,,0.11,0.000000,,2013-01-30 10:52:00,
2013-01-30 04:02:00,24.0,22.0,-100.00,North,350,2.0,4.0,91,-99.99,,,0.11,0.000000,,2013-01-30 11:02:00,
2013-01-30 04:11:00,24.0,22.0,-100.00,North,350,2.0,4.0,91,-99.99,,,0.11,0.000000,,2013-01-30 11:11:00,
2013-01-30 04:42:00,28.0,25.0,-100.00,ENE,58,3.0,6.0,90,0.00,,,0.11,0.000000,,2013-01-30 11:42:00,
2013-01-30 04:52:00,28.0,25.0,-100.00,ENE,58,3.0,6.0,90,0.00,,,0.11,0.000000,,2013-01-30 11:52:00,
2013-01-30 05:02:00,28.0,25.0,-100.00,ENE,58,3.0,6.0,90,0.00,,,0.11,0.000000,,2013-01-30 12:02:00,
2013-01-30 05:12:00,28.0,25.0,-100.00,ENE,58,3.0,6.0,90,0.00,,,0.11,0.000000,,2013-01-30 12:12:00,
2013-01-30 05:33:00,27.0,24.0,-100.00,NNE,16,2.0,5.0,88,0.00,,,0.11,0.000000,,2013-01-30 12:33:00,
2013-01-30 05:43:00,27.0,24.0,-100.00,NNE,16,2.0,5.0,88,0.00,,,0.11,0.000000,,2013-01-30 12:43:00,
2013-01-30 06:02:00,27.0,24.0,-100.00,NNE,16,2.0,5.0,88,0.00,,,0.11,0.000000,,2013-01-30 13:02:00,
2013-01-30 06:12:00,27.0,24.0,-100.00,NNE,16,2.0,5.0,88,0.00,,,0.11,0.000000,,2013-01-30 13:12:00,
2013-01-30 06:43:00,26.0,24.0,-100.00,North,10,2.0,4.0,91,0.00,,,0.11,0.000000,,2013-01-30 13:43:00,
2013-01-30 06:53:00,26.0,24.0,-100.00,North,10,2.0,4.0,91,0.00,,,0.11,0.000000,,2013-01-30 13:53:00,
2013-01-30 07:02:00,26.0,24.0,-100.00,North,10,2.0,4.0,91,0.00,,,0.11,0.000000,,2013-01-30 14:02:00,
2013-01-30 07:11:00,26.0,24.0,-100.00,North,10,2.0,4.0,91,0.00,,,0.11,0.000000,,2013-01-30 14:11:00,
2013-01-30 07:43:00,26.0,25.0,-100.00,NE,45,1.0,3.0,94,0.00,,,0.11,0.000000,,2013-01-30 14:43:00,
2013-01-30 07:53:00,26.0,25.0,-100.00,NE,45,1.0,3.0,94,0.00,,,0.11,0.000000,,2013-01-30 14:53:00,
2013-01-30 08:03:00,26.0,25.0,-100.00,NE,45,1.0,3.0,94,0.00,,,0.11,0.000000,,2013-01-30 15:03:00,
2013-01-30 08:11:00,26.0,25.0,-100.00,NE,45,1.0,3.0,94,0.00,,,0.11,0.000000,,2013-01-30 15:11:00,
2013-01-30 08:43:00,27.0,26.0,-100.00,ENE,69,1.0,3.0,94,0.00,,,0.11,0.000000,,2013-01-30 15:43:00,
2013-01-30 08:53:00,27.0,26.0,-100.00,ENE,69,1.0,3.0,94,0.00,,,0.11,0.000000,,2013-01-30 15:53:00,
2013-01-30 09:03:00,27.0,26.0,-100.00,ENE,69,1.0,3.0,94,0.00,,,0.11,0.000000,,2013-01-30 16:03:00,
2013-01-30 09:12:00,27.0,26.0,-100.00,ENE,69,1.0,3.0,94,0.00,,,0.11,0.000000,,2013-01-30 16:12:00,
2013-01-30 09:42:00,29.0,27.0,-100.00,NNE,30,2.0,6.0,92,0.00,,,0.11,4.000000,,2013-01-30 16:42:00,
2013-01-30 09:52:00,29.0,27.0,-100.00,NNE,30,2.0,6.0,92,0.00,,,0.11,4.000000,,2013-01-30 16:52:00,
2013-01-30 10:02:00,29.0,27.0,-100.00,NNE,30,2.0,6.0,92,0.00,,,0.11,4.000000,,2013-01-30 17:02:00,
2013-01-30 10:12:00,29.0,27.0,-100.00,NNE,30,2.0,6.0,92,0.00,,,0.11,4.000000,,2013-01-30 17:12:00,
2013-01-30 10:33:00,30.0,28.0,-100.00,NNE,29,2.0,5.0,91,0.00,,,0.11,15.000000,,2013-01-30 17:33:00,
2013-01-30 10:43:00,30.0,28.0,-100.00,NNE,29,2.0,5.0,91,0.00,,,0.11,15.000000,,2013-01-30 17:43:00,
2013-01-30 10:53:00,30.0,28.0,-100.00,NNE,29,2.0,5.0,91,0.00,,,0.11,15.000000,,2013-01-30 17:53:00,
2013-01-30 11:02:00,30.0,28.0,-100.00,NNE,29,2.0,5.0,91,0.00,,,0.11,15.000000,,2013-01-30 18:02:00,
2013-01-30 11:12:00,30.0,28.0,-100.00,NNE,29,2.0,5.0,91,0.00,,,0.11,15.000000,,2013-01-30 18:12:00,
2013-01-30 12:43:00,36.0,27.0,-100.00,NW,312,4.0,11.0,70,-99.99,,,0.11,115.000000,,2013-01-30 19:43:00,
2013-01-30 12:53:00,36.0,27.0,-100.00,NW,312,4.0,11.0,70,-99.99,,,0.11,115.000000,,2013-01-30 19:53:00,
2013-01-30 13:02:00,36.0,27.0,-100.00,NW,312,4.0,11.0,70,-99.99,,,0.11,115.000000,,2013-01-30 20:02:00,
2013-01-30 13:11:00,36.0,27.0,-100.00,NW,312,4.0,11.0,70,-99.99,,,0.11,115.000000,,2013-01-30 20:11:00,
2013-01-30 13:42:00,36.0,26.0,-100.00,SW,232,5.0,11.0,67,0.00,,,0.09,97.000000,,2013-01-30 20:42:00,
2013-01-30 13:53:00,36.0,26.0,-100.00,SW,232,5.0,11.0,67,0.00,,,0.09,97.000000,,2013-01-30 20:53:00,
2013-01-30 14:03:00,36.0,26.0,-100.00,SW,232,5.0,11.0,67,0.00,,,0.09,97.000000,,2013-01-30 21:03:00,
2013-01-30 14:11:00,36.0,26.0,-100.00,SW,232,5.0,11.0,67,0.00,,,0.09,97.000000,,2013-01-30 21:11:00,
2013-01-30 14:43:00,36.0,26.0,-100.00,NW,319,3.0,12.0,68,0.00,,,0.00,74.000000,,2013-01-30 21:43:00,
2013-01-30 14:52:00,36.0,26.0,-100.00,NW,319,3.0,12.0,68,0.00,,,0.00,74.000000,,2013-01-30 21:52:00,
2013-01-30 15:02:00,36.0,26.0,-100.00,NW,319,3.0,12.0,68,0.00,,,0.00,74.000000,,2013-01-30 22:02:00,
2013-01-30 15:11:00,36.0,26.0,-100.00,NW,319,3.0,12.0,68,0.00,,,0.00,74.000000,,2013-01-30 22:11:00,
2013-01-30 15:42:00,37.0,27.0,-100.00,SE,124,3.0,12.0,66,0.00,,,0.00,48.000000,,2013-01-30 22:42:00,
2013-01-30 15:52:00,37.0,27.0,-100.00,SE,124,3.0,12.0,66,0.00,,,0.00,48.000000,,2013-01-30 22:52:00,
2013-01-30 16:02:00,37.0,27.0,-100.00,SE,124,3.0,12.0,66,0.00,,,0.00,48.000000,,2013-01-30 23:02:00,
2013-01-30 16:11:00,37.0,27.0,-100.00,SE,124,3.0,12.0,66,0.00,,,0.00,48.000000,,2013-01-30 23:11:00,
2013-01-30 16:33:00,36.0,25.0,-100.00,NW,315,4.0,12.0,65,0.00,,,0.00,60.000000,,2013-01-30 23:33:00,
2013-01-30 16:42:00,36.0,25.0,-100.00,NW,315,4.0,12.0,65,0.00,,,0.00,60.000000,,2013-01-30 23:42:00,
2013-01-30 16:52:00,36.0,25.0,-100.00,NW,315,4.0,12.0,65,0.00,,,0.00,60.000000,,2013-01-30 23:52:00,
2013-01-30 17:01:00,36.0,25.0,-100.00,NW,315,4.0,12.0,65,0.00,,,0.00,60.000000,,2013-01-31 00:01:00,
2013-01-30 17:11:00,36.0,25.0,-100.00,NW,315,4.0,12.0,65,0.00,,,0.00,60.000000,,2013-01-31 00:11:00,
2013-01-30 17:42:00,36.0,26.0,-100.00,WNW,291,6.0,16.0,67,0.00,,,0.00,13.000000,,2013-01-31 00:42:00,
2013-01-30 17:53:00,36.0,26.0,-100.00,WNW,291,6.0,16.0,67,0.00,,,0.00,13.000000,,2013-01-31 00:53:00,
2013-01-30 18:02:00,36.0,26.0,-100.00,WNW,291,6.0,16.0,67,0.00,,,0.00,13.000000,,2013-01-31 01:02:00,
2013-01-30 18:11:00,36.0,26.0,-100.00,WNW,291,6.0,16.0,67,0.00,,,0.00,13.000000,,2013-01-31 01:11:00,
2013-01-30 18:42:00,35.0,26.0,-100.00,NW,311,5.0,12.0,70,0.00,,,0.00,2.000000,,2013-01-31 01:42:00,
2013-01-30 18:52:00,35.0,26.0,-100.00,NW,311,5.0,12.0,70,0.00,,,0.00,2.000000,,2013-01-31 01:52:00,
2013-01-30 19:01:00,35.0,26.0,-100.00,NW,311,5.0,12.0,70,0.00,,,0.00,2.000000,,2013-01-31 02:01:00,
2013-01-30 19:11:00,35.0,26.0,-100.00,NW,311,5.0,12.0,70,0.00,,,0.00,2.000000,,2013-01-31 02:11:00,
2013-01-30 20:02:00,35.0,27.0,-100.00,NW,304,4.0,14.0,72,0.00,,,0.00,0.000000,,2013-01-31 03:02:00,
2013-01-30 20:11:00,35.0,27.0,-100.00,NW,304,4.0,14.0,72,0.00,,,0.00,0.000000,,2013-01-31 03:11:00,
2013-01-30 20:32:00,35.0,26.0,-100.00,NW,310,3.0,10.0,68,0.00,,,0.00,0.000000,,2013-01-31 03:32:00,
2013-01-30 20:42:00,35.0,26.0,-100.00,NW,310,3.0,10.0,68,0.00,,,0.00,0.000000,,2013-01-31 03:42:00,
2013-01-30 20:52:00,35.0,26.0,-100.00,NW,310,3.0,10.0,68,0.00,,,0.00,0.000000,,2013-01-31 03:52:00,
2013-01-30 21:02:00,35.0,26.0,-100.00,NW,310,3.0,10.0,68,0.00,,,0.00,0.000000,,2013-01-31 04:02:00,
2013-01-30 21:11:00,35.0,26.0,-100.00,NW,310,3.0,10.0,68,0.00,,,0.00,0.000000,,2013-01-31 04:11:00,
2013-01-30 21:32:00,34.0,27.0,-100.00,North,349,2.0,6.0,74,0.00,,,0.00,0.000000,,2013-01-31 04:32:00,
2013-01-30 21:42:00,34.0,27.0,-100.00,North,349,2.0,6.0,74,0.00,,,0.00,0.000000,,2013-01-31 04:42:00,
2013-01-30 21:52:00,34.0,27.0,-100.00,North,349,2.0,6.0,74,0.00,,,0.00,0.000000,,2013-01-31 04:52:00,
2013-01-30 22:03:00,34.0,27.0,-100.00,North,349,2.0,6.0,74,0.00,,,0.00,0.000000,,2013-01-31 05:03:00,
2013-01-30 22:11:00,34.0,27.0,-100.00,North,349,2.0,6.0,74,0.00,,,0.00,0.000000,,2013-01-31 05:11:00,
2013-01-30 22:42:00,34.0,27.0,-100.00,NW,325,3.0,5.0,75,0.00,,,0.00,0.000000,,2013-01-31 05:42:00,
2013-01-30 22:52:00,34.0,27.0,-100.00,NW,325,3.0,5.0,75,0.00,,,0.00,0.000000,,2013-01-31 05:52:00,
2013-01-30 23:01:00,34.0,27.0,-100.00,NW,325,3.0,5.0,75,0.00,,,0.00,0.000000,,2013-01-31 06:01:00,
2013-01-30 23:10:00,34.0,27.0,-100.00,NW,325,3.0,5.0,75,0.00,,,0.00,0.000000,,2013-01-31 06:10:00,